{"data":{"norad_id":49763,"intl_designator":"2021-115AR","name":"STARLINK-3198","alt_names":[],"object_type":"PAYLOAD","status":"ACTIVE","operator":null,"country":"US","launch_date":"2021-12-02","launch_site_code":"AFETR","launch_vehicle":null,"mission":null,"orbit_class":"UNKNOWN","rcs_meters":null,"size_class":null,"mass_kg":null,"dimensions":null,"purposes":["comms"],"wikipedia_slug":null,"has_3d_model":false,"image_url":null,"decayed_at":null,"tle_current":{"epoch":"2026-05-24T17:48:05.480640Z","epoch_age_seconds":97368,"freshness":"FRESH","line1":"1 49763U 21115AR  26144.74173010 -.00000078  00000+0  13156-4 0  9994","line2":"2 49763  53.2139 157.7102 0001056  73.4937 286.6171 15.08834772247168","mean_motion":15.08834772,"eccentricity":0.0001056,"inclination_deg":53.2139,"raan_deg":157.7102,"arg_perigee_deg":73.4937,"mean_anomaly_deg":286.6171,"bstar":1.3156e-5,"rev_number":24716,"period_min":95.437885361778,"perigee_km":539.02883905819,"apogee_km":540.48989877131,"semimajor_km":6917.8963689148,"source":"CELESTRAK","updated_at":"2026-05-25T13:38:16.840039Z"}}}